Flag for Bosnia-Herzegovina Weather past 2 weeks in Sarajevo, Bosnia-Herzegovina

Now
59 °F

More clouds than sun.


Feels Like: 58 °F
Forecast: 58 / 83 °F
Wind: 6 mph from West

Location: Sarajevo / Butmir

Current Time: Jul 31, 2015 at 9:45:54 PM

Latest Report: Jul 31, 2015 at 9:00 PM


Visibility: 4 mi

Pressure: 30.09 "Hg (28.27 "Hg at 526m altitude)

Humidity: 88%

Dew point: 55 °F

Location of SarajevoLocation

Historic Weather in Sarajevo — Graph

°F

Sarajevo temperature yesterday

Maximum temperature yesterday: 86 °F (at 12:30 PM)
Minimum temperature yesterday: 61 °F (at 6:00 AM)
Average temperature yesterday: 74 °F

Past Weeks' High & Low Weather Summary

 TemperatureHumidityPressure
High99 °F (Jul 19, 4:00 PM)100% (Jul 18, 12:00 AM)30.18 "Hg (Jul 18, 12:00 AM)
Low57 °F (Jul 27, 5:00 AM)19% (Jul 22, 5:00 PM)29.74 "Hg (Jul 27, 3:00 PM)
Average77 °F62%29.97 "Hg
* Reported Jul 16 9:00 PM — Jul 31 9:00 PM, Sarajevo, Weather by CustomWeather, © 2015

Note: Actual official high and low records may vary slightly from our data, if they occured in-between our weather recording intervals... More about our weather records

Advertising

Sarajevo weather history for previous 24 hours

 ConditionsComfort  
Time TempWeatherWind HumidityBarometerVisibility
9:00 PM
Fri, Jul 31
59 °FMore clouds than sun.6 mph88%30.09 "Hg4 mi
8:30 PM59 °FMore clouds than sun.6 mph88%30.09 "Hg4 mi
8:00 PM61 °FMore clouds than sun.6 mph83%30.09 "Hg4 mi
7:30 PM61 °FPartly sunny.5 mph83%30.09 "Hg5 mi
7:00 PM61 °FBroken clouds.5 mph83%30.09 "Hg5 mi
6:30 PM59 °FDrizzle. Broken clouds.6 mph88%30.09 "Hg4 mi
6:00 PM61 °FLight rain. Broken clouds.7 mph83%30.07 "Hg5 mi
5:30 PM61 °FBroken clouds.8 mph83%30.07 "HgN/A
5:00 PM63 °FPartly sunny.8 mph77%30.07 "HgN/A
4:30 PM63 °FPartly sunny.9 mph77%30.07 "HgN/A
4:00 PM63 °FPartly sunny.9 mph77%30.07 "HgN/A
3:30 PM63 °FPartly sunny.9 mph77%30.04 "HgN/A
3:00 PM66 °FPartly sunny.8 mph78%30.04 "HgN/A
2:30 PM66 °FPartly sunny.9 mph78%30.04 "HgN/A
2:00 PM68 °FPartly sunny.6 mph78%30.01 "HgN/A
1:30 PM66 °FScattered clouds.5 mph83%30.01 "HgN/A
1:00 PM66 °FScattered clouds.2 mph88%30.01 "HgN/A
12:30 PM63 °FLight rain. Partly sunny.2 mph94%30.04 "Hg5 mi
12:00 PM59 °FThunderstorms. Partly sunny.10 mph94%30.09 "Hg2 mi
11:30 AM63 °FLight rain. Partly sunny.13 mph88%30.07 "Hg5 mi
11:00 AM64 °FLight rain. Broken clouds.10 mph88%30.04 "Hg5 mi
10:30 AM66 °FPartly sunny.6 mph88%30.01 "Hg5 mi
9:30 AM64 °FLight rain. Broken clouds.2 mph94%30.01 "Hg5 mi
9:00 AM64 °FThunderstorms. Partly sunny.5 mph94%30.01 "Hg4 mi
8:30 AM68 °FThunderstorms. Partly sunny.15 mph78%29.98 "Hg2 mi
8:00 AM68 °FPartly sunny.3 mph78%29.95 "Hg4 mi
7:30 AM66 °FPartly sunny.6 mph83%29.95 "Hg5 mi
7:00 AM68 °FPartly sunny.2 mph78%29.92 "Hg5 mi
6:30 AM66 °FMostly cloudy.2 mph83%29.95 "Hg5 mi
6:00 AM66 °FPassing clouds.3 mph83%29.95 "Hg5 mi
5:30 AM66 °FOvercast.3 mph83%29.95 "HgN/A
5:00 AM66 °FOvercast.3 mph83%29.98 "HgN/A
4:00 AM68 °FOvercast.3 mph78%29.98 "HgN/A
3:00 AM68 °FPassing clouds.1 mph78%29.98 "HgN/A
2:00 AM68 °FPassing clouds.2 mph78%29.98 "HgN/A
1:00 AM68 °FPassing clouds.3 mph78%29.98 "HgN/A
12:00 AM70 °FPassing clouds.3 mph73%29.98 "HgN/A
11:00 PM
Thu, Jul 30
70 °FPassing clouds.7 mph73%29.98 "HgN/A
10:30 PM70 °FPartly cloudy.6 mph73%29.98 "HgN/A
10:00 PM72 °FPartly cloudy.7 mph69%29.98 "HgN/A
9:30 PM72 °FPartly cloudy.8 mph69%29.98 "HgN/A
9:00 PM72 °FScattered clouds.7 mph73%29.95 "HgN/A
Weather by CustomWeather, © 2015

See weather overviewHow to use our weather pages